Location: Newark
(32.8014°N, 52.8711°E)
Time: 18:48:49
(UTC+00:00)

Envisat - Pass Details

Date: 28 January 2020
Orbit: 764 x 766 km, 98.1° (Epoch: 17 February)

Event Time Altitude Azimuth Distance (km) Brightness Sun altitude
Rises 15:32:48 0° 206° (SSW) 3,217 6.7 -20.3°
Reaches altitude 10° 15:35:54 10° 226° (SW) 2,296 6.2 -20.9°
Maximum altitude 15:39:07 17° 266° (W) 1,862 6.0 -21.6°
Drops below altitude 10° 15:42:22 10° 306° (NW) 2,304 6.1 -22.3°
Sets 15:45:30 0° 327° (NNW) 3,234 6.6 -22.9°
